Showing default

COSMOS 2529 (GLONASS), 43687

Orbit data source: Space-Track

COSMOS 2529 (GLONASS), 43687 is a Commonwealth of Independent States-origin payload satellite in MEO that was launched on Sat, 03 Nov 2018 UTC via a SOYUZ-2-1B launch vehicle from the Plesetsk Missile And Space Complex (PKMTR). Payload-class satellites include a variety of spacecraft equipped with specific instruments for various scientific and technological missions. These include communications satellites like Starlink; space stations such as the ISS; scientific satellites like the Hubble; Earth observation satellites from companies like Planet Labs, Umbra, and HawkEye 360; GPS; miniature CubeSats for education and research; and military/defense satellites.

Loading next visibility...
Identifier
43687, 2018-086A
Orbit
MEO
Country
Flag of CISCIS
Related business
Manufacturer
Resehetnev ISS
Mission
Operational Defense Navigation
Bus & Motor
URAGAN, Unknown motor
Mass
1,450 kg wet, ~1,200 kg dry
Launch date (UTC)
2018-11-03 (8 years ago)
Launch vehicle
SOYUZ-2-1B
Launch site
Plesetsk Missile And Space Complex (PKMTR)
Object type
Payload
Rocket body
Debris
Shape & HBR
Cyl + 1 Ant + 2 Pan, 3.9 m
Radar Cross Section
8.467 m², Large (>1 m²)

Expand to show TLE details & history
Last TLE update: 4 days ago

TLE from 4 days ago
0 COSMOS 2529 (GLONASS)
1 43687U 18086A   26169.11967451  .00000057  00000-0  00000-0 0  9991
2 43687  64.2948 192.5630 0012066 256.5324 103.3830  2.13101950 59308
Epoch: 2026-06-18T02:52Z
TLE epoch observation values (Epoch: 2026-06-18T02:52:19.877Z)
Latitude
0.00002°
Longitude
-116.88385°
Altitude
19,137.592 km
Speed
3.952 km/s
True Right ascension
12h 50m 15s
True Declination
0° 00' 00"
Sunlit
Object was in daylight at epoch
Visualization orbit readout
Latitude
Unknown
Longitude
Unknown
Altitude
Unknown
Speed
Unknown
Apparent Right ascension
Unknown
Apparent Declination
Unknown
Sunlit
N/A
Visualization observer readout
Local Sidereal Time
21:38:52
Azimuth
Unknown
Elevation
Unknown
Doppler factor
Unknown
Orbital elements
Apogee altitude
19,160.309 km
Perigee altitude
19,098.753 km
Semi-major axis
25,507.668 km
Eccentricity
0.00121
Inclination
64.2948°
RAAN
192.563°
Arg. of periapsis
256.5324°
True anomaly
103.51746°
Mean anomaly
103.383°
Eccentric anomaly
103.45024°
Mean motion
0.53277 °/min
Orbital period
675.72 mins
BSTAR
0
Loading maneuver chart data...
Computing Atmospheric mass density...
Loading historical data...
Loading historical data...
Loading historical data...
Loading historical data...
Loading historical data...
Loading historical data...
Loading historical data...
Other satellites on launch #86 in the year 2018 (2018-11-03 UTC)

Documentation

Showing up to 5 results
|